星链-31774 (STARLINK-31774 )

导读

STARLINK-31774是美国SpaceX公司星链星座的一员,于2024年4月28日发射升空,属于低轨通信卫星。作为星链全球卫星互联网项目的组成部分,它运行于约550公里高度轨道,为全球偏远地区提供高速低延迟宽带服务。卫星采用平板设计与霍尔推进技术,具备自主避撞能力,寿命末期会主动离轨再入大气层焚毁,减少太空垃圾。星链计划最终将部署数万颗卫星,推动全球互联覆盖。

Basic Information
目录编号:
59622
目录名称:
STARLINK-31774
国际标识:
2024-080X
轨道中心:
EARTH
卫星名称:
星链-31774
卫星全名:
星链-31774 (STARLINK-31774 )
卫星状态:
在轨 (已飞行859 天)
发射日期:
2024-04-28 UTC
国别 :
美国 (US)
星等 :
--
Orbit Information
数据来源 国际轨道数据 AOE轨道数据
星历时间 2026-09-04T08:20:25+0800
16小时前
查看轨道信息
2026-08-30T22:00:00+0800
5天前
查看轨道信息
半长轴 6861.196km 6861.145km
偏心率 0.0001297 0.0001884
轨道倾角 43.003° 43.001°
近地点辐角 246.622° 248.220°
升交点赤经 107.485° 132.511°
平近点角 113.450° 196.931°
近地点 482.169km 481.715km
远地点 483.949km 484.301km
周期 94.267分钟 94.266分钟
每日圈数 15.275767 15.275938
Detailed Information
固有亮度:
5
最大亮度:
1.5
卫星平台:
Starlink v2.0 mini
覆盖范围:
全球
运营商:
太空探索技术公司
运营商所在国:
美国
制造商(研发单位):
太空探索技术公司
制造商所在国:
美国
使用方式:
暂无
Satellite Introduction
星链(Starlink)计划是由太空探索技术公司(SpaceX)提出的一个巨型低轨卫星互联网星座项目,计划在2019年至2024年间在太空搭建由约1.2万颗卫星组成的“星链”网络,其中1584颗将部署在地球上空550千米处的近地轨道,并从2020年开始工作。该卫星仍在工作。
2D Orbit Map
3D Orbit Map
Orbit Altitude Analysis Chart
Orbit Inclination Analysis Chart
Orbit Comprehensive Analysis Chart
View Comprehensive Chart
Conjunction Data List
Event ID Objects TCA Miss Dist (km) Collision Risk Probability Collision Risk Index (CRI) Action
CDM_260904-164004-371105-962222
2026-09-04T
16:40:21+0000
2.357 km
极远距离
1.911113E-6 低风险 0.41
CDM_260906-080705-962206-495221
2026-09-06T
08:07:11+0000
2.815 km
极远距离
9.568715E-7 极低风险 0.35